ATLAS 5 CENTAUR R/B

Satellite information

Favourite Embed

Satellite Type and Status

ROCKET BODYIN ORBIT

Key statistics

Satellite ATLAS 5 CENTAUR R/B at a glance.

Uptime

3620

Days in orbit

Revolutions

≈ 15.0

Per day

Orbit

LEO

Low Earth Orbit

Inclination

64.8

Latest

Satellite identification and parameters

Extended collection of information and parameters for ATLAS 5 CENTAUR R/B.

Object identification

Identified? True

Debris? False

Object name: ATLAS 5 CENTAUR R/B

International designator: 2015-058Q

Object number (NORAD): 40978

Object ID (CCSDS): 40978

Country: UNITED STATES OF AMERICA (US)

Current information (Y/N): Y

RCS size: LARGE

Orbital parameters

Period: 95.921 minutes

Inclination: 64.7712 deg

SMA: 6941.232 km

Apoapsis: 653.749 km

Periapsis: 472.446 km

RAAN: 326.1964 deg

Eccentricy: 0.01305984

Argument of periapsis: 167.6566 deg

Mean anomaly: 192.7806 deg

Mean motion: 15.01232256 rev/day

Mean motion (dot): 0.00010526 rev/day2

B* drag term: 0.00069129824 1/REarth

Two-line elements (TLE)

Creation date: Sept. 4, 2025, 10:13 a.m.

Reference frame: TEME

Reference center: EARTH

Epoch: Sept. 4, 2025, 5:09 a.m. UTC

TLE line 0: 0 ATLAS 5 CENTAUR R/B

TLE line 1: 1 40978U 15058Q 25247.21481543 .00010526 00000-0 69130-3 0 9991

TLE line 2: 2 40978 64.7712 326.1964 0130598 167.6566 192.7806 15.01232256 72235

Live tracking on map

Real-time ground track for satellite ATLAS 5 CENTAUR R/B.

In-orbit conjunctions

A list of the most updated potential collisions computed for object ATLAS 5 CENTAUR R/B.

Target Orbit TCA Probability of collision Miss distance Type
MACSAT 2 (M 2) LEO 2025-05-18 09:30:07 0.0002731725 975.0 (m) PAYLOAD
YUNHAI 1-02 DEB SSO 2024-11-08 04:58:12 0.001055666 677.0 (m) DEBRIS
CZ-6A DEB SSO 2024-08-25 06:32:06 0.0002017515 299.0 (m) DEBRIS

Associated space launch

Classified payload for the U.S. National Reconnaissance Office.

ATLAS 5 CENTAUR R/B was lifted into orbit during the mission ‘Atlas V 401 | NROL-55 (Multipayload mission)’, on board a Atlas V 401 space rocket.

The launch took place on Oct. 8, 2015, 12:49 p.m. from Space Launch Complex 3E.

For more information about the launch, click the button.

Launch to space Atlas V 401 | NROL-55 (Multipayload mission)
Atlas V 401 | NROL-55 (Multipayload mission)

Agency: N/A

Status: Launch Successful

Launch date: Oct. 8, 2015, 12:49 p.m. UTC

Rocket: Atlas V 401

Launch pad: Space Launch Complex 3E

Location: Vandenberg SFB, CA, USA

...

Latest news about this satellite

There are no fresh news available about this satellite. Check back as we update our databases every day.


Newsletter sign-up

Weekly statistics, charts and insights to help you stay on top of the space industry.